www.pogodaiklimat.ru

Погода и климат >> Архив погоды >> Россия >> Якутия >> Иэма


ПОГОДА в Иэме

  • Прогноз погоды в Иэме
  • Монитор погоды в Иэме
  • Климат города

АРХИВ ПОГОДЫ в Иэме

Время (UTC), дата Ветер
(напр.,м/с)
 
Видим.   Явления Облачность Т
(С)
Тd
(С)
f
(%)
Тe
(С)
Тes
(С)
Комфортность P
(гПа)
Po
(гПа)
Тmin
(С)
Tmax
(С)
R
(мм)
R24
(мм)
S
(см)
12 10.11 В 4 50 км ясно -15.7 -19.9 70 -24 -24 1035.0 947.0
15 10.11 В 3 50 км ясно -14.1 -18.4 70 -21 -21 1034.1 946.6
18 10.11 В 4 50 км ясно -14.5 -18.8 70 -22 -22 1034.2 946.6
21 10.11 ЮЗ 1 50 км ясно -19.4 -23.5 70 -22 -22 1036.5 947.1 -19.7 23
00 11.11 ЮЗ 1 50 км 6/0
[Ac trans Ci fib]
-21.9 -25.2 75 -25 -25 1037.4 947.1 -21.9
03 11.11 ЮВ 3 50 км 10/0
[As op]
-12.3 -17.5 65 -18 -18 1033.3 946.5
06 11.11 ЮВ 5 4000 м снег 10/0
[As op]
-11.4 -14.2 80 -19 -19 1032.7 946.3
09 11.11 ЮВ 4 10 км слабый снег 9/0
[As op]
-11.5 -14.3 80 -19 -19 1032.9 946.4 -11.4 0.7
12 11.11 В 3 50 км {снег} 3/0
[As trans]
-12.2 -14.9 80 -18 -18 1032.5 945.8
15 11.11 ЮВ 2 50 км ясно -13.5 -16.2 80 -18 -18 1031.8 944.7
18 11.11 ЮВ 5 50 км ясно -10.2 -13.8 75 -18 -18 1029.6 943.8
21 11.11 В 3 50 км 3/0
[Ci fib]
-9.7 -13.3 75 -16 -16 1028.8 943.2 -14.0 0.0 23
00 12.11 ЮВ 3 20 км слабый ливневой снег 10/8 600 м
[Cb cap Ac trans Cc]
-7.8 -10.5 81 -14 -14 1028.3 943.4
03 12.11 Ю 3 50 км 5/0
[Ac lent Cc]
-7.5 -11.4 74 -13 -13 1027.9 943.1
06 12.11 В 3 50 км 3/1 600 м
[Sc Cc]
-8.8 -12.6 74 -15 -15 1028.3 943.0
09 12.11 В 4 50 км ясно -11.6 -15.1 75 -19 -19 1029.1 942.9 -7.5 0.2
12 12.11 СЗ 2 50 км 4/0
[Ci fib]
-22.5 -25.0 80 -29 -29 1031.8 941.8
15 12.11 З 1 50 км 10/0
[Cs]
-18.3 -20.2 85 -21 -21 1026.6 940.2
18 12.11 Ю 2 10 км слабый ливневой снег 10/10 600 м
[Cb cap]
-12.5 -14.5 85 -17 -17 1024.8 938.6
21 12.11 ЮВ 3 50 км {ливн. осадки} 10/10 600 м
[Cb cap]
-11.6 -13.6 85 -18 -18 1022.9 937.3 -22.5 0.8 24
00 13.11 Ю 1 50 км {ливн. осадки} 10/0
[As op]
-8.2 -10.9 81 -11 -11 1021.3 936.8
03 13.11 штиль 0 50 км 10/0
[As op]
-7.1 -10.9 74 -8 -8 1020.3 936.3
06 13.11 ЮЗ 1 50 км 9/6 600 м
[Sc Ac trans]
-8.2 -11.4 78 -10 -10 1020.5 936.1
09 13.11 штиль 0 50 км 9/0
[Ac trans]
-8.9 -10.9 85 -9 -9 1021.0 936.4 -7.0
12 13.11 штиль 0 50 км 4/0
[Ac trans]
-10.9 -12.2 90 -11 -11 1021.9 936.5
15 13.11 В 2 50 км 10/0
[Ac und]
-10.8 -12.1 90 -15 -15 1022.2 936.8
18 13.11 ЮВ 2 50 км 10/10 600 м
[Sc]
-7.3 -10.3 79 -12 -12 1020.7 936.5
21 13.11 ЮВ 8 50 км позёмок {метель} 4/0
[Ac lent Cc]
-7.8 -10.9 78 -17 -17 1019.3 935.1
00 14.11 Ю 7-10
{11}
50 км {метель} 10/6 600 м
[Sc Ac As Cs]
-7.3 -10.7 77 -16 -16 1019.4 935.4
03 14.11 Ю 6-10
{10}
50 км 10/8 600 м
[Sc Ac lent Cs]
-8.0 -12.6 69 -16 -16 1020.5 936.1
06 14.11 Ю 6-11
{10}
50 км 9/8 600 м
[Sc Ac lent Cs]
-8.5 -13.3 68 -17 -17 1021.1 936.5
09 14.11 Ю 5 50 км 10/10 600 м
[Sc]
-10.1 -13.7 75 -18 -18 1022.5 937.3 -7.3
12 14.11 Ю 4 50 км 6/0
[Ac trans Cs]
-12.4 -15.9 75 -20 -20 1024.0 938.0
15 14.11 Ю 3 50 км 8/0
[Ac trans Cs]
-13.9 -17.4 75 -20 -20 1025.0 938.4
18 14.11 ЮВ 1 50 км 8/0
[Ci]
-15.2 -18.6 75 -18 -18 1025.4 938.4
21 14.11 ЮВ 2 50 км 8/0
[Ci fib]
-17.4 -20.0 80 -23 -23 1024.9 937.2 -17.8 18
00 15.11 Ю 1 10 км слабый снег 10/0
[As op]
-15.8 -18.5 80 -18 -18 1023.1 936.0
03 15.11 С 1 10 км слабый снег 10/0
[As op]
-16.7 -19.3 80 -19 -19 1021.0 933.8
06 15.11 штиль 0 50 км {снег} 10/0
[Ac lent Ci]
-16.9 -19.5 80 -17 -17 1019.4 932.3
09 15.11 СВ 1 50 км {снег} 9/0
[As trans]
-17.2 -19.1 85 -20 -20 1019.4 932.2 -15.8 1
12 15.11 штиль 0 50 км {снег} 3/0
[Ac trans]
-18.8 -20.7 85 -19 -19 1020.6 932.7
15 15.11 С 1 50 км ясно -18.6 -21.2 80 -21 -21 1021.2 933.4
18 15.11 В 1 50 км ясно -21.3 -23.2 85 -24 -24 1022.5 933.7
21 15.11 штиль 0 50 км ясно -25.2 -27.1 84 -25 -25 1023.8 933.5 -25.3 20
00 16.11 штиль 0 50 км 1/0
[Ci fib]
-31.4 -33.6 81 -31 -31 опасность
обморожения
1026.6 933.6
03 16.11 СЗ 1 50 км 8/0
[Ci]
-29.2 -31.6 80 -33 -33 опасность
обморожения
1025.4 933.6
06 16.11 штиль 0 50 км 9/0
[Cs]
-30.5 -33.0 79 -31 -31 опасность
обморожения
1026.2 933.8
09 16.11 штиль 0 50 км 10/0
[As trans Cs]
-32.1 -34.4 80 -32 -32 опасность
обморожения
1026.7 933.7 -25.2
12 16.11 штиль 0 50 км слабый снег 10/0
[As op]
-26.9 -29.3 80 -27 -27 1024.6 933.7
15 16.11 штиль 0 4000 м снег 10/0 600 м
[As op]
-24.5 -27.0 80 -25 -25 1023.6 933.6
18 16.11 СЗ 1 20 км слабый снег 10/0 600 м
[As op]
-24.7 -27.2 80 -28 -28 1023.7 933.6
21 16.11 штиль 0 50 км {снег} 3/0
[As trans]
-24.2 -26.7 80 -24 -24 1023.6 933.7 -32.1 0.3 20
00 17.11 штиль 0 50 км {снег} 8/0
[As trans Ci fib]
-27.2 -29.6 80 -27 -27 1025.4 934.3 -27.2
03 17.11 штиль 0 50 км 6/0
[Ci fib]
-27.4 -29.8 80 -27 -27 1025.4 934.3
06 17.11 штиль 0 50 км 8/0
[Ci fib]
-27.9 -30.3 80 -28 -28 1025.9 934.5

 

Местоположение метеостанции Иэма (Якутия, Россия): широта 65.30 долгота 135.80 высота над уровнем моря 675 м.

В архиве по умолчанию представлена погода в Иэме за последнюю неделю. Архивные данные за месяц целиком и за предыдущие месяцы, начиная с января 2011 года, Вы можете получить, выбрав интересующий диапазон дат из раскрывающегося списка и нажав кнопку "Ввод!".


*Определитесь, кто Вы:
робот инопланетянин человек

Внимание! Время в таблицах - всемирное. Для получения местного времени необходимо прибавить поправку, которая в Иэме равна 9 ч.

Смотрите также архив погоды в соседних городах и на ближайших метеорологических станциях:

Погода в Томпо (Якутия, Россия) (150 км)
Погода в Усть-Чарках (Якутия, Россия) (171 км)
Погода в Екюччю (Якутия, Россия) (250 км)
Погода в Батагае (Якутия, Россия) (267 км)
Погода в Себян-Кюеле (Якутия, Россия) (269 км)
Погода в Верхоянске (Якутия, Россия) (274 км)
Погода в Крест-Хальджае (Якутия, Россия) (284 км)
Погода в Теплом Ключе (Якутия, Россия) (284 км)
Погода в Верхоянском Перевозе (Якутия, Россия) (286 км)
Погода в Восточной (Якутия, Россия) (294 км)

Пояснения к столбцам:

Ветер - указаны скорость ветра в м/с - средняя за 10 мин, порывы в срок и между сроками (в фигурных скобках) и направление, откуда дует ветер: С - северный, СВ - северо-восточный, В - восточный, ЮВ - юго-восточный, Ю - южный, ЮЗ - юго-западный, З - западный, СЗ - северо-западный.
Видимость - горизонтальная дальность видимости в метрах или километрах. При видимости от 1 до 10 км при отсутствии осадков обычно наблюдается дымка, при ухудшении видимости до 1 км и менее - туман. В сухую погоду видимость может ухудшаться дымом, пылью или мглою.
Явления - указаны атмосферные явления, наблюдавшиеся в срок или в последний час перед сроком; фигурными скобками обозначены явления, наблюдавшиеся между сроками (за 1-3 часа до срока); квадратными скобками обозначены град или гололедные отложения с указанием их диаметра в мм.
Облачность - указаны через наклонную черту общая и нижняя облачность в баллах и высота нижней границы облаков в метрах; квадратными скобками обозначены формы облаков: Ci - перистые, Cs - перисто-слоистые, Cc - перисто-кучевые, Ac - высококучевые, As - высокослоистые, Sc - слоисто-кучевые, Ns - слоисто-дождевые, Cu - кучевые, Cb - кучево-дождевые. Подробнее классификацию облаков см. в Атласе облаков (PDF).
T - Температура воздуха - температура, измеренная на высоте 2 м над землей.
Td - Температура точки росы - температура, при понижении до которой содержащийся в воздухе водяной пар достигнет насыщения.
f - Относительная влажность воздуха - влажноcть воздуха, измеренная на высоте 2 м над землей.
Te - Эффективная температура - температура, которую ощущает одетый по сезону человек в тени. Характеристика душности погоды. При расчете учитывается влияние влажности воздуха и скорости ветра на теплоощущения человека.
Tes - Эффективная температура на солнце - температура, которую ощущает человек, с поправкой на солнечный нагрев. Характеристика знойности погоды. Зависит от высоты солнца над горизонтом, облачности и скорости ветра. Ночью, в пасмурную погоду, а также при ветре 12 м/с и более поправка равна нулю.
P - Атмосферное давление - приведенное к уровню моря атмосферное давление.
Po - Атмосферное давление - измеренное на уровне метеостанции атмосферное давление.
Tmin - Минимальная температура - минимум температуры воздуха на высоте 2 м над землей.
Tmax - Максимальная температура - максимум температуры воздуха на высоте 2 м над землей.
R - Количество осадков - Количество выпавших осадков за период времени, мм. При наведении курсора мыши на число - период времени, за который выпало указанное количество осадков.
R24 - Количество осадков - Количество выпавших осадков за 24 часа, мм.
S - Снежный покров - Высота снежного покрова, см. При наведении курсора мыши на число - состояние снежного покрова и степень покрытия местности в баллах.